sat.trackr.live / text

‹ back to catalog

STARLINK-2622

NORAD 48360 · 2021-038H

PAYLOAD ACTIVE UNKNOWN

§ Identity

Operator
Country
US
Launch date
2021-05-04
Launch site
AFETR
Launch vehicle
Mass (kg)
RCS (m²)

Purposes: comms

External: N2YO · Heavens-Above · Gunter

§ Orbital elements

Epoch: 2026-09-19T20:11:03.416928Z

Period
94.01 min
Inclination
53.1614°
Eccentricity
0.0000984
Mean motion
15.31704785 rev/d
Perigee alt
470.1 km
Apogee alt
471.4 km
Semi-major
6,848.9 km
B*
6.1249e-6
RAAN
174.6104°
Arg perigee
101.5544°
Mean anomaly
258.5568°
Rev number
29,682

§ Raw data

STARLINK-26221 48360U 21038H   26262.84101177 -.00000175  00000+0  61249-5 0  99922 48360  53.1614 174.6104 0000984 101.5544 258.5568 15.31704785296824

JSON: /api/v1/satellites/48360 · /tle

For live sub-satellite position, see the globe view (requires WebGL).

§ Visibility from observer

Set your observer location to see the next 7 days of passes ≥ 10°. The values pass through the URL so the page stays shareable.

No JS? Fill the form by hand. The geolocation button needs JavaScript.